TRA64R LEMG-EHRD

Flight info

Callsign TRA64R
Flight time 2h 24m
Altitude 34000
Route BLN DCT MORAL DCT BEXID DCT VTB DCT RBO N867 DGO L176 LUSEM DCT LULUT DCT ADABI DCT BOKNO DCT DEVRO DCT VANAD DCT PIWIZ DCT VADOM DCT BAMES DCT ARSAF DCT EGOZE DCT CMB DCT VEKIN DCT ADUTO N873 FERDI Y18 DENUT
Aircraft A321/M-SDE3FGHIRWY/LB1

Departure

Time 2026-05-07 11:26
Airport Málaga-Costa del Sol Airport (LEMG)

Arrival

Time 2026-05-07 13:50
Airport Rotterdam The Hague Airport (EHRD)
Time Latitude Longitude Altitude Speed Heading
2026-05-07 10:47 36.67870 -4.49454 42 ft 0 kts 213°
2026-05-07 11:18 36.67885 -4.49443 40 ft 4 kts 210°
2026-05-07 11:19 36.67898 -4.49425 42 ft 3 kts 255°
2026-05-07 11:19 36.67900 -4.49401 42 ft 2 kts 300°
2026-05-07 11:19 36.67889 -4.49381 42 ft 0 kts 311°
2026-05-07 11:21 36.67890 -4.49382 42 ft 2 kts 311°
2026-05-07 11:21 36.67919 -4.49424 42 ft 10 kts 311°
2026-05-07 11:21 36.67970 -4.49496 42 ft 13 kts 311°
2026-05-07 11:22 36.68010 -4.49598 42 ft 15 kts 256°
2026-05-07 11:22 36.67935 -4.49701 42 ft 17 kts 222°
2026-05-07 11:22 36.67848 -4.49798 41 ft 16 kts 221°
2026-05-07 11:22 36.67751 -4.49866 42 ft 16 kts 205°
2026-05-07 11:23 36.67748 -4.49972 43 ft 13 kts 305°
2026-05-07 11:23 36.67805 -4.50055 44 ft 12 kts 311°
2026-05-07 11:23 36.67869 -4.50143 44 ft 17 kts 312°
2026-05-07 11:23 36.67962 -4.50273 44 ft 24 kts 311°
2026-05-07 11:24 36.68088 -4.50448 44 ft 31 kts 312°
2026-05-07 11:24 36.68243 -4.50667 45 ft 36 kts 312°
2026-05-07 11:24 36.68404 -4.50893 50 ft 32 kts 311°
2026-05-07 11:24 36.68483 -4.51006 53 ft 13 kts 308°
2026-05-07 11:25 36.68497 -4.51098 54 ft 10 kts 257°
2026-05-07 11:25 36.68478 -4.51172 55 ft 11 kts 251°
2026-05-07 11:25 36.68403 -4.51187 58 ft 18 kts 139°
2026-05-07 11:25 36.68286 -4.51025 54 ft 43 kts 131°
2026-05-07 11:26 36.67888 -4.50463 52 ft 126 kts 131°
2026-05-07 11:26 36.67161 -4.49442 110 ft 182 kts 131°
2026-05-07 11:26 36.66346 -4.48289 1062 ft 174 kts 131°
2026-05-07 11:26 36.65519 -4.47139 1807 ft 181 kts 133°
2026-05-07 11:27 36.64651 -4.45938 2033 ft 199 kts 133°
2026-05-07 11:27 36.63677 -4.44590 2173 ft 219 kts 133°
2026-05-07 11:27 36.62622 -4.43129 2488 ft 232 kts 133°
2026-05-07 11:27 36.61539 -4.41621 3167 ft 234 kts 133°
2026-05-07 11:28 36.60455 -4.40085 3854 ft 237 kts 128°
2026-05-07 11:28 36.59758 -4.38224 4530 ft 241 kts 103°
2026-05-07 11:28 36.59415 -4.36168 5235 ft 243 kts 103°
2026-05-07 11:28 36.59074 -4.34106 5952 ft 244 kts 103°
2026-05-07 11:29 36.58743 -4.32051 6583 ft 249 kts 99°
2026-05-07 11:29 36.58896 -4.29812 6803 ft 274 kts 69°
2026-05-07 11:29 36.60014 -4.27862 7282 ft 285 kts 37°
2026-05-07 11:29 36.61821 -4.26838 7896 ft 289 kts 13°
2026-05-07 11:30 36.63791 -4.26255 8577 ft 292 kts 12°
2026-05-07 11:30 36.65787 -4.25676 9269 ft 296 kts 12°
2026-05-07 11:30 36.67806 -4.25087 9938 ft 299 kts 12°
2026-05-07 11:30 36.69865 -4.24485 10345 ft 313 kts 12°
2026-05-07 11:31 36.72057 -4.23845 10479 ft 334 kts 12°
2026-05-07 11:31 36.74386 -4.23161 10735 ft 350 kts 12°
2026-05-07 11:31 36.76776 -4.22454 11288 ft 356 kts 12°
2026-05-07 11:31 36.79171 -4.21742 11896 ft 359 kts 12°
2026-05-07 11:32 36.84088 -4.20276 13139 ft 367 kts 12°
2026-05-07 11:32 36.86583 -4.19532 13763 ft 370 kts 12°
2026-05-07 11:32 36.89107 -4.18781 14310 ft 374 kts 12°
2026-05-07 11:33 36.91650 -4.18023 14866 ft 377 kts 12°
2026-05-07 11:33 36.94220 -4.17258 15431 ft 381 kts 12°
2026-05-07 11:33 36.96807 -4.16488 15959 ft 384 kts 11°
2026-05-07 11:33 36.99419 -4.15711 16483 ft 388 kts 11°
2026-05-07 11:34 37.02059 -4.14926 17038 ft 391 kts 11°
2026-05-07 11:34 37.04719 -4.14133 17589 ft 394 kts 11°
2026-05-07 11:34 37.07395 -4.13335 18112 ft 397 kts 11°
2026-05-07 11:34 37.10090 -4.12534 18577 ft 400 kts 11°
2026-05-07 11:35 37.12812 -4.11727 19038 ft 402 kts 10°
2026-05-07 11:35 37.15513 -4.10922 19501 ft 405 kts 10°
2026-05-07 11:35 37.18259 -4.10098 19998 ft 407 kts 10°
2026-05-07 11:35 37.21018 -4.09265 20446 ft 409 kts 10°
2026-05-07 11:36 37.23802 -4.08424 20905 ft 411 kts 10°
2026-05-07 11:36 37.26587 -4.07585 21364 ft 413 kts
2026-05-07 11:36 37.29396 -4.06742 21809 ft 416 kts
2026-05-07 11:36 37.32217 -4.05895 22267 ft 418 kts
2026-05-07 11:37 37.35052 -4.05041 22722 ft 420 kts
2026-05-07 11:37 37.37903 -4.04181 23165 ft 422 kts
2026-05-07 11:37 37.40766 -4.03320 23583 ft 424 kts
2026-05-07 11:37 37.43652 -4.02450 23898 ft 428 kts 10°
2026-05-07 11:38 37.46566 -4.01570 24214 ft 431 kts 10°
2026-05-07 11:38 37.49487 -4.00685 24582 ft 433 kts
2026-05-07 11:38 37.52383 -3.99806 24944 ft 434 kts
2026-05-07 11:38 37.55329 -3.98913 25305 ft 436 kts
2026-05-07 11:39 37.58289 -3.98019 25658 ft 437 kts
2026-05-07 11:39 37.61254 -3.97120 26015 ft 438 kts
2026-05-07 11:39 37.64195 -3.96226 26374 ft 440 kts
2026-05-07 11:39 37.67176 -3.95316 26740 ft 442 kts
2026-05-07 11:40 37.70169 -3.94404 27048 ft 444 kts
2026-05-07 11:40 37.73188 -3.93486 27390 ft 445 kts
2026-05-07 11:40 37.76207 -3.92572 27723 ft 447 kts
2026-05-07 11:40 37.79231 -3.91658 28048 ft 448 kts
2026-05-07 11:41 37.82273 -3.90735 28368 ft 449 kts
2026-05-07 11:41 37.85318 -3.89807 28676 ft 451 kts
2026-05-07 11:41 37.88376 -3.88872 28971 ft 452 kts
2026-05-07 11:41 37.91450 -3.87933 29246 ft 455 kts
2026-05-07 11:42 37.94495 -3.87001 29469 ft 457 kts
2026-05-07 11:42 37.97596 -3.86048 29746 ft 459 kts
2026-05-07 11:42 38.00702 -3.85095 30009 ft 460 kts
2026-05-07 11:42 38.03823 -3.84140 30241 ft 462 kts
2026-05-07 11:43 38.06946 -3.83180 30561 ft 461 kts
2026-05-07 11:43 38.10055 -3.82221 30884 ft 460 kts
2026-05-07 11:43 38.13179 -3.81256 31099 ft 463 kts
2026-05-07 11:43 38.16321 -3.80288 31224 ft 467 kts
2026-05-07 11:44 38.19501 -3.79314 31358 ft 471 kts
2026-05-07 11:44 38.22689 -3.78335 31585 ft 472 kts
2026-05-07 11:44 38.25883 -3.77351 31854 ft 472 kts
2026-05-07 11:44 38.29083 -3.76359 32170 ft 471 kts
2026-05-07 11:45 38.32269 -3.75367 32501 ft 470 kts
2026-05-07 11:45 38.35414 -3.74391 32825 ft 469 kts
2026-05-07 11:45 38.38587 -3.73412 33153 ft 469 kts
2026-05-07 11:45 38.41749 -3.72436 33462 ft 468 kts
2026-05-07 11:46 38.44912 -3.71455 33778 ft 467 kts
2026-05-07 11:46 38.48065 -3.70476 33906 ft 465 kts
2026-05-07 11:46 38.51194 -3.69500 33927 ft 460 kts
2026-05-07 11:47 38.57406 -3.67565 33929 ft 458 kts
2026-05-07 11:47 38.63600 -3.65634 33928 ft 458 kts
2026-05-07 11:48 38.69767 -3.63707 33933 ft 459 kts
2026-05-07 11:48 38.75970 -3.61764 33932 ft 458 kts
2026-05-07 11:49 38.82167 -3.59816 33925 ft 458 kts
2026-05-07 11:49 38.88373 -3.57869 33946 ft 458 kts
2026-05-07 11:50 38.94544 -3.55933 33929 ft 458 kts
2026-05-07 11:50 39.00747 -3.54170 33925 ft 453 kts
2026-05-07 11:51 39.07003 -3.53514 33926 ft 451 kts 359°
2026-05-07 11:51 39.13272 -3.52895 33918 ft 452 kts 360°
2026-05-07 11:52 39.19559 -3.52267 33908 ft 452 kts
2026-05-07 11:52 39.25846 -3.51635 33910 ft 453 kts
2026-05-07 11:53 39.32089 -3.51013 33932 ft 453 kts
2026-05-07 11:53 39.38381 -3.50384 33924 ft 453 kts
2026-05-07 11:54 39.44672 -3.49756 33918 ft 453 kts
2026-05-07 11:54 39.50961 -3.49125 33918 ft 453 kts
2026-05-07 11:55 39.57252 -3.48490 33922 ft 454 kts
2026-05-07 11:55 39.63553 -3.47852 33911 ft 454 kts
2026-05-07 11:56 39.69870 -3.47221 33909 ft 454 kts
2026-05-07 11:56 39.76132 -3.46592 33919 ft 454 kts
2026-05-07 11:57 39.82430 -3.45737 33907 ft 456 kts
2026-05-07 11:57 39.88711 -3.44420 33907 ft 458 kts
2026-05-07 11:58 39.94998 -3.43021 33890 ft 458 kts
2026-05-07 11:58 40.01310 -3.41711 33888 ft 460 kts
2026-05-07 11:59 40.07610 -3.40466 33894 ft 462 kts
2026-05-07 11:59 40.13981 -3.39206 33894 ft 463 kts
2026-05-07 12:00 40.20357 -3.37921 33911 ft 464 kts
2026-05-07 12:00 40.26753 -3.36628 33907 ft 465 kts
2026-05-07 12:01 40.33157 -3.35327 33912 ft 466 kts
2026-05-07 12:01 40.39540 -3.34028 33929 ft 467 kts
2026-05-07 12:02 40.45971 -3.32721 33939 ft 467 kts
2026-05-07 12:02 40.51320 -3.31639 33939 ft 467 kts
2026-05-07 12:03 40.57751 -3.30333 33940 ft 467 kts
2026-05-07 12:03 40.64176 -3.29018 33931 ft 467 kts
2026-05-07 12:04 40.70609 -3.27692 33940 ft 467 kts
2026-05-07 12:04 40.77047 -3.26371 33932 ft 467 kts
2026-05-07 12:05 40.83427 -3.25066 33934 ft 467 kts
2026-05-07 12:05 40.89858 -3.23712 33935 ft 467 kts
2026-05-07 12:06 40.96266 -3.22261 33934 ft 467 kts
2026-05-07 12:06 41.02673 -3.20788 33944 ft 467 kts
2026-05-07 12:07 41.09088 -3.19336 33938 ft 467 kts
2026-05-07 12:07 41.15467 -3.17903 33940 ft 468 kts
2026-05-07 12:08 41.21932 -3.16457 33921 ft 468 kts
2026-05-07 12:08 41.28338 -3.15020 33924 ft 469 kts
2026-05-07 12:09 41.34775 -3.13562 33925 ft 469 kts
2026-05-07 12:09 41.41208 -3.12107 33936 ft 468 kts
2026-05-07 12:10 41.47607 -3.10651 33924 ft 468 kts
2026-05-07 12:10 41.54031 -3.09182 33924 ft 468 kts
2026-05-07 12:11 41.60466 -3.07719 33923 ft 468 kts
2026-05-07 12:11 41.66884 -3.06264 33925 ft 467 kts
2026-05-07 12:12 41.73260 -3.04806 33908 ft 467 kts
2026-05-07 12:12 41.79695 -3.03327 33907 ft 469 kts
2026-05-07 12:13 41.86146 -3.01846 33909 ft 470 kts
2026-05-07 12:13 41.92601 -3.00354 33907 ft 471 kts
2026-05-07 12:14 41.99069 -2.98860 33912 ft 472 kts
2026-05-07 12:14 42.05511 -2.97369 33920 ft 472 kts
2026-05-07 12:15 42.11988 -2.95863 33917 ft 473 kts
2026-05-07 12:15 42.18470 -2.94350 33921 ft 473 kts
2026-05-07 12:16 42.24963 -2.92838 33937 ft 472 kts
2026-05-07 12:16 42.31448 -2.91321 33935 ft 472 kts
2026-05-07 12:17 42.37873 -2.89815 33944 ft 471 kts
2026-05-07 12:17 42.44189 -2.87508 33931 ft 471 kts 25°
2026-05-07 12:18 42.49708 -2.82801 33926 ft 468 kts 43°
2026-05-07 12:18 42.54588 -2.76914 33921 ft 469 kts 43°
2026-05-07 12:19 42.59443 -2.71067 33949 ft 469 kts 43°
2026-05-07 12:19 42.64330 -2.65169 33925 ft 470 kts 43°
2026-05-07 12:20 42.69207 -2.59250 33932 ft 470 kts 44°
2026-05-07 12:20 42.74087 -2.53316 33948 ft 471 kts 44°
2026-05-07 12:21 42.78967 -2.47375 33943 ft 471 kts 43°
2026-05-07 12:21 42.83830 -2.41457 33944 ft 471 kts 44°
2026-05-07 12:22 42.88708 -2.35496 33934 ft 471 kts 44°
2026-05-07 12:22 42.93578 -2.29517 33926 ft 471 kts 44°
2026-05-07 12:23 42.98461 -2.23518 33928 ft 471 kts 44°
2026-05-07 12:23 43.03338 -2.17513 33933 ft 471 kts 43°
2026-05-07 12:24 43.08172 -2.11535 33939 ft 472 kts 44°
2026-05-07 12:24 43.13040 -2.05505 33939 ft 472 kts 44°
2026-05-07 12:25 43.17915 -1.99478 33945 ft 472 kts 44°
2026-05-07 12:25 43.22783 -1.93430 33939 ft 472 kts 44°
2026-05-07 12:26 43.27647 -1.87370 33930 ft 471 kts 43°
2026-05-07 12:26 43.32751 -1.81755 33937 ft 471 kts 31°
2026-05-07 12:27 43.38406 -1.77289 33937 ft 471 kts 31°
2026-05-07 12:27 43.43939 -1.72464 33946 ft 471 kts 34°
2026-05-07 12:28 43.49377 -1.67387 33974 ft 471 kts 34°
2026-05-07 12:28 43.54796 -1.62364 33973 ft 471 kts 34°
2026-05-07 12:29 43.60268 -1.57400 33964 ft 471 kts 33°
2026-05-07 12:29 43.65762 -1.52436 33947 ft 471 kts 33°
2026-05-07 12:30 43.71240 -1.47456 33967 ft 470 kts 33°
2026-05-07 12:30 43.76712 -1.42461 33974 ft 470 kts 33°
2026-05-07 12:31 43.82137 -1.37500 33980 ft 470 kts 33°
2026-05-07 12:31 43.87588 -1.32500 33980 ft 470 kts 33°
2026-05-07 12:32 43.93036 -1.27494 33980 ft 470 kts 33°
2026-05-07 12:32 43.98489 -1.22474 33974 ft 470 kts 33°
2026-05-07 12:33 44.06628 -1.14947 33984 ft 470 kts 33°
2026-05-07 12:33 44.12070 -1.09899 33977 ft 470 kts 33°
2026-05-07 12:34 44.17503 -1.04851 33989 ft 469 kts 33°
2026-05-07 12:34 44.22926 -0.99799 33996 ft 468 kts 33°
2026-05-07 12:35 44.28358 -0.94739 33989 ft 469 kts 33°
2026-05-07 12:35 44.33781 -0.89675 33987 ft 469 kts 33°
2026-05-07 12:36 44.39194 -0.84661 33993 ft 469 kts 30°
2026-05-07 12:36 44.45082 -0.80785 33997 ft 468 kts 22°
2026-05-07 12:37 44.51066 -0.77153 33987 ft 468 kts 22°
2026-05-07 12:37 44.57015 -0.73520 33991 ft 468 kts 22°
2026-05-07 12:38 44.62981 -0.69864 34005 ft 468 kts 22°
2026-05-07 12:38 44.68947 -0.66197 34007 ft 467 kts 22°
2026-05-07 12:39 44.74923 -0.62521 34012 ft 468 kts 22°
2026-05-07 12:39 44.80850 -0.58862 34009 ft 467 kts 22°
2026-05-07 12:40 44.86813 -0.55174 34004 ft 467 kts 22°
2026-05-07 12:40 44.92781 -0.51485 34008 ft 468 kts 22°
2026-05-07 12:41 44.98742 -0.47778 34007 ft 468 kts 22°
2026-05-07 12:41 45.04695 -0.44076 34002 ft 467 kts 22°
2026-05-07 12:42 45.10613 -0.40390 33994 ft 467 kts 22°
2026-05-07 12:42 45.16573 -0.36664 33993 ft 468 kts 22°
2026-05-07 12:43 45.22529 -0.32933 34002 ft 468 kts 22°
2026-05-07 12:43 45.28478 -0.29207 34002 ft 468 kts 22°
2026-05-07 12:44 45.34436 -0.25456 34006 ft 468 kts 22°
2026-05-07 12:44 45.40356 -0.21725 34018 ft 468 kts 22°
2026-05-07 12:45 45.46314 -0.17957 34017 ft 468 kts 22°
2026-05-07 12:45 45.52272 -0.14180 34009 ft 468 kts 22°
2026-05-07 12:46 45.58224 -0.10384 34019 ft 468 kts 22°
2026-05-07 12:46 45.64131 -0.06622 34021 ft 467 kts 22°
2026-05-07 12:47 45.70068 -0.02840 34017 ft 467 kts 22°
2026-05-07 12:47 45.76003 0.00954 33998 ft 466 kts 22°
2026-05-07 12:48 45.81940 0.04760 34020 ft 466 kts 22°
2026-05-07 12:48 45.86862 0.07929 34013 ft 466 kts 22°
2026-05-07 12:49 45.93739 0.12362 34004 ft 465 kts 22°
2026-05-07 12:49 45.98655 0.15527 34017 ft 465 kts 22°
2026-05-07 12:50 46.04569 0.19344 34028 ft 464 kts 22°
2026-05-07 12:50 46.10462 0.23170 34023 ft 464 kts 22°
2026-05-07 12:51 46.16347 0.26999 34009 ft 464 kts 22°
2026-05-07 12:51 46.22224 0.30830 34018 ft 463 kts 22°
2026-05-07 12:52 46.28050 0.34645 34017 ft 462 kts 22°
2026-05-07 12:52 46.33911 0.38481 34014 ft 461 kts 22°
2026-05-07 12:53 46.39764 0.42319 34027 ft 461 kts 22°
2026-05-07 12:53 46.45600 0.46160 34032 ft 460 kts 22°
2026-05-07 12:54 46.51395 0.49979 34031 ft 459 kts 22°
2026-05-07 12:54 46.57305 0.53458 34043 ft 455 kts 12°
2026-05-07 12:55 46.63465 0.55509 34040 ft 454 kts 10°
2026-05-07 12:55 46.69623 0.57524 34034 ft 453 kts 10°
2026-05-07 12:56 46.75784 0.59570 34030 ft 453 kts 10°
2026-05-07 12:56 46.81928 0.61610 34026 ft 453 kts 10°
2026-05-07 12:57 46.88034 0.63636 34023 ft 453 kts 10°
2026-05-07 12:57 46.94184 0.65674 34023 ft 452 kts 10°
2026-05-07 12:58 47.00334 0.67723 34034 ft 452 kts 10°
2026-05-07 12:58 47.06486 0.69378 34032 ft 448 kts
2026-05-07 12:59 47.12708 0.70013 34034 ft 448 kts
2026-05-07 12:59 47.18941 0.70661 34049 ft 448 kts
2026-05-07 13:00 47.25164 0.71314 34049 ft 448 kts
2026-05-07 13:00 47.31354 0.71969 34052 ft 448 kts
2026-05-07 13:01 47.37584 0.72617 34056 ft 448 kts
2026-05-07 13:01 47.43820 0.73263 34063 ft 448 kts
2026-05-07 13:02 47.50022 0.74249 34059 ft 450 kts 11°
2026-05-07 13:02 47.56015 0.77045 34054 ft 452 kts 17°
2026-05-07 13:03 47.61986 0.79995 34052 ft 452 kts 16°
2026-05-07 13:03 47.67917 0.82912 34044 ft 451 kts 16°
2026-05-07 13:04 47.73917 0.85869 34039 ft 452 kts 16°
2026-05-07 13:04 47.79858 0.88806 34038 ft 451 kts 16°
2026-05-07 13:05 47.85821 0.91769 34046 ft 451 kts 17°
2026-05-07 13:05 47.91723 0.94748 34043 ft 450 kts 17°
2026-05-07 13:06 47.97664 0.97774 34041 ft 451 kts 17°
2026-05-07 13:06 48.03603 1.00787 34044 ft 450 kts 17°
2026-05-07 13:07 48.09535 1.03793 34045 ft 450 kts 17°
2026-05-07 13:07 48.15475 1.06819 34045 ft 450 kts 17°
2026-05-07 13:08 48.21402 1.09863 34045 ft 450 kts 17°
2026-05-07 13:08 48.27307 1.12881 34060 ft 451 kts 17°
2026-05-07 13:09 48.33238 1.15895 34057 ft 450 kts 17°
2026-05-07 13:09 48.39164 1.18921 34059 ft 449 kts 17°
2026-05-07 13:10 48.45089 1.21965 34069 ft 449 kts 17°
2026-05-07 13:10 48.50983 1.24991 34068 ft 449 kts 17°
2026-05-07 13:11 48.56899 1.28030 34062 ft 448 kts 17°
2026-05-07 13:11 48.62828 1.31021 34055 ft 448 kts 16°
2026-05-07 13:12 48.68747 1.33993 34065 ft 447 kts 16°
2026-05-07 13:12 48.74649 1.36974 34064 ft 447 kts 17°
2026-05-07 13:13 48.80549 1.39960 34061 ft 447 kts 17°
2026-05-07 13:13 48.86416 1.42947 34058 ft 447 kts 17°
2026-05-07 13:14 48.92310 1.45956 34055 ft 447 kts 17°
2026-05-07 13:14 48.97864 1.50240 34052 ft 450 kts 35°
2026-05-07 13:15 49.02331 1.56833 34050 ft 451 kts 48°
2026-05-07 13:15 49.06503 1.63994 34046 ft 452 kts 47°
2026-05-07 13:16 49.10687 1.71155 34065 ft 452 kts 47°
2026-05-07 13:16 49.14861 1.78343 34057 ft 452 kts 47°
2026-05-07 13:17 49.19032 1.85558 34062 ft 452 kts 47°
2026-05-07 13:17 49.23198 1.92761 34069 ft 452 kts 47°
2026-05-07 13:18 49.27335 1.99937 34070 ft 452 kts 48°
2026-05-07 13:18 49.31485 2.07176 34078 ft 452 kts 48°
2026-05-07 13:19 49.35631 2.14426 34073 ft 451 kts 48°
2026-05-07 13:19 49.39776 2.21667 34071 ft 451 kts 48°
2026-05-07 13:20 49.43893 2.28883 34071 ft 451 kts 47°
2026-05-07 13:20 49.48028 2.36156 34064 ft 451 kts 47°
2026-05-07 13:21 49.52134 2.43421 34074 ft 452 kts 48°
2026-05-07 13:21 49.56606 2.50162 34062 ft 449 kts 34°
2026-05-07 13:22 49.61858 2.55304 34056 ft 447 kts 30°
2026-05-07 13:22 49.67134 2.60407 34057 ft 448 kts 30°
2026-05-07 13:23 49.72415 2.65553 34067 ft 448 kts 30°
2026-05-07 13:23 49.77659 2.70664 34063 ft 448 kts 30°
2026-05-07 13:24 49.82939 2.75800 34060 ft 448 kts 30°
2026-05-07 13:24 49.88220 2.80956 34060 ft 448 kts 30°
2026-05-07 13:25 49.93491 2.86134 34075 ft 448 kts 30°
2026-05-07 13:25 49.98773 2.91333 34068 ft 448 kts 30°
2026-05-07 13:26 50.04041 2.96530 34063 ft 448 kts 30°
2026-05-07 13:26 50.09312 3.01741 34061 ft 448 kts 30°
2026-05-07 13:27 50.14546 3.06931 34057 ft 448 kts 30°
2026-05-07 13:27 50.19812 3.12169 34068 ft 448 kts 31°
2026-05-07 13:28 50.25257 3.16875 34068 ft 446 kts 22°
2026-05-07 13:28 50.30977 3.20866 32796 ft 464 kts 22°
2026-05-07 13:29 50.33927 3.22931 32174 ft 461 kts 22°
2026-05-07 13:29 50.36833 3.24978 31745 ft 455 kts 22°
2026-05-07 13:29 50.39713 3.27016 31182 ft 452 kts 22°
2026-05-07 13:29 50.42559 3.29075 30649 ft 448 kts 24°
2026-05-07 13:30 50.45355 3.31207 30104 ft 445 kts 25°
2026-05-07 13:30 50.48112 3.33385 29530 ft 441 kts 25°
2026-05-07 13:30 50.50830 3.35567 29026 ft 436 kts 26°
2026-05-07 13:30 50.53540 3.37680 28495 ft 431 kts 24°
2026-05-07 13:31 50.56245 3.39633 27990 ft 426 kts 22°
2026-05-07 13:31 50.58921 3.41457 27498 ft 422 kts 21°
2026-05-07 13:31 50.61613 3.43247 27004 ft 418 kts 21°
2026-05-07 13:31 50.64277 3.45015 26524 ft 413 kts 21°
2026-05-07 13:32 50.66917 3.46786 26064 ft 409 kts 22°
2026-05-07 13:32 50.69514 3.48556 25610 ft 404 kts 22°
2026-05-07 13:32 50.72082 3.50325 25165 ft 401 kts 22°
2026-05-07 13:32 50.74621 3.52090 24727 ft 397 kts 22°
2026-05-07 13:33 50.77142 3.53854 24290 ft 394 kts 22°
2026-05-07 13:33 50.79636 3.55600 23847 ft 390 kts 22°
2026-05-07 13:33 50.82080 3.57307 23381 ft 387 kts 22°
2026-05-07 13:33 50.84526 3.59011 22929 ft 382 kts 22°
2026-05-07 13:34 50.86944 3.60694 22498 ft 377 kts 22°
2026-05-07 13:34 50.91803 3.63489 21624 ft 367 kts
2026-05-07 13:34 50.94322 3.63921 21200 ft 362 kts
2026-05-07 13:35 50.96832 3.64067 20768 ft 359 kts
2026-05-07 13:35 50.99324 3.64218 20338 ft 356 kts
2026-05-07 13:35 51.01790 3.64372 19905 ft 354 kts
2026-05-07 13:35 51.04242 3.64526 19478 ft 351 kts
2026-05-07 13:36 51.06682 3.64679 19051 ft 349 kts
2026-05-07 13:36 51.09106 3.64834 18633 ft 348 kts
2026-05-07 13:36 51.11490 3.64988 18200 ft 346 kts
2026-05-07 13:36 51.13886 3.65143 17759 ft 343 kts
2026-05-07 13:37 51.16262 3.65296 17345 ft 340 kts
2026-05-07 13:37 51.17828 3.65396 17084 ft 338 kts
2026-05-07 13:37 51.20171 3.65548 16683 ft 335 kts
2026-05-07 13:37 51.22478 3.66050 16272 ft 334 kts 13°
2026-05-07 13:38 51.24656 3.67295 15880 ft 333 kts 25°
2026-05-07 13:38 51.26624 3.69216 15495 ft 331 kts 35°
2026-05-07 13:38 51.28509 3.71394 15080 ft 337 kts 35°
2026-05-07 13:38 51.30410 3.73584 14642 ft 337 kts 35°
2026-05-07 13:39 51.32312 3.75765 14182 ft 336 kts 35°
2026-05-07 13:39 51.34212 3.77942 13753 ft 335 kts 35°
2026-05-07 13:39 51.36109 3.80123 13266 ft 335 kts 35°
2026-05-07 13:39 51.38000 3.82299 12798 ft 334 kts 35°
2026-05-07 13:40 51.39880 3.84469 12319 ft 333 kts 35°
2026-05-07 13:40 51.41733 3.86608 11863 ft 332 kts 35°
2026-05-07 13:40 51.43603 3.88770 11407 ft 331 kts 36°
2026-05-07 13:40 51.45468 3.90925 10943 ft 330 kts 36°
2026-05-07 13:41 51.47330 3.93080 10511 ft 329 kts 36°
2026-05-07 13:41 51.49183 3.95228 10070 ft 328 kts 36°
2026-05-07 13:41 51.51029 3.97376 9603 ft 327 kts 36°
2026-05-07 13:41 51.52864 3.99513 9116 ft 325 kts 36°
2026-05-07 13:42 51.54695 4.01632 8646 ft 323 kts 34°
2026-05-07 13:42 51.56687 4.03208 8159 ft 313 kts 20°
2026-05-07 13:42 51.58670 4.04393 7701 ft 295 kts 21°
2026-05-07 13:42 51.60540 4.05504 7404 ft 284 kts 21°
2026-05-07 13:43 51.62381 4.06597 7097 ft 279 kts 21°
2026-05-07 13:43 51.64188 4.07673 6798 ft 275 kts 21°
2026-05-07 13:43 51.65974 4.08738 6497 ft 272 kts 21°
2026-05-07 13:43 51.67743 4.09796 6123 ft 270 kts 21°
2026-05-07 13:44 51.69502 4.10850 5762 ft 268 kts 21°
2026-05-07 13:44 51.71219 4.11879 5410 ft 265 kts 21°
2026-05-07 13:44 51.72918 4.12898 5090 ft 254 kts 21°
2026-05-07 13:44 51.74547 4.13874 4795 ft 248 kts 21°
2026-05-07 13:45 51.76157 4.14839 4472 ft 245 kts 21°
2026-05-07 13:45 51.77758 4.15799 4166 ft 244 kts 21°
2026-05-07 13:45 51.79345 4.16749 3867 ft 242 kts 21°
2026-05-07 13:45 51.80924 4.17696 3547 ft 240 kts 21°
2026-05-07 13:46 51.82466 4.18622 3271 ft 233 kts 21°
2026-05-07 13:46 51.83969 4.19530 2960 ft 227 kts 21°
2026-05-07 13:46 51.85425 4.20426 2702 ft 220 kts 24°
2026-05-07 13:46 51.86664 4.21796 2436 ft 213 kts 46°
2026-05-07 13:47 51.87528 4.23693 2188 ft 207 kts 57°
2026-05-07 13:47 51.88298 4.25606 2036 ft 204 kts 56°
2026-05-07 13:47 51.89068 4.27519 2005 ft 201 kts 56°
2026-05-07 13:47 51.89828 4.29408 1931 ft 198 kts 56°
2026-05-07 13:48 51.90542 4.31185 1756 ft 178 kts 56°
2026-05-07 13:48 51.91177 4.32765 1522 ft 156 kts 56°
2026-05-07 13:48 51.91749 4.34190 1323 ft 147 kts 55°
2026-05-07 13:48 51.92295 4.35550 1121 ft 143 kts 56°
2026-05-07 13:49 51.92830 4.36884 932 ft 141 kts 55°
2026-05-07 13:49 51.93373 4.38238 737 ft 142 kts 55°
2026-05-07 13:49 51.93911 4.39571 543 ft 141 kts 54°
2026-05-07 13:49 51.94434 4.40903 369 ft 141 kts 54°
2026-05-07 13:50 51.94967 4.42236 146 ft 141 kts 54°
2026-05-07 13:50 51.95499 4.43555 5 ft 136 kts 54°
2026-05-07 13:50 51.95911 4.44576 -2 ft 68 kts 57°
2026-05-07 13:50 51.96067 4.44971 2 ft 34 kts 57°
2026-05-07 13:51 51.96148 4.45184 4 ft 14 kts 63°
2026-05-07 13:51 51.96135 4.45325 2 ft 13 kts 124°
2026-05-07 13:51 51.96060 4.45388 1 ft 12 kts 191°
2026-05-07 13:51 51.96002 4.45299 1 ft 11 kts 236°
2026-05-07 13:52 51.95956 4.45183 1 ft 13 kts 235°
2026-05-07 13:52 51.95890 4.45021 1 ft 22 kts 237°
2026-05-07 13:52 51.95791 4.44769 1 ft 31 kts 237°
2026-05-07 13:52 51.95656 4.44430 1 ft 39 kts 236°
2026-05-07 13:53 51.95507 4.44057 1 ft 40 kts 237°
2026-05-07 13:53 51.95366 4.43708 1 ft 24 kts 236°
2026-05-07 13:53 51.95300 4.43544 1 ft 13 kts 237°
2026-05-07 13:53 51.95227 4.43530 1 ft 12 kts 154°
2026-05-07 13:54 51.95154 4.43606 1 ft 13 kts 147°
2026-05-07 13:54 51.95071 4.43692 1 ft 15 kts 146°
2026-05-07 13:54 51.94995 4.43771 1 ft 11 kts 155°
2026-05-07 13:54 51.94934 4.43710 1 ft 12 kts 232°
2026-05-07 13:55 51.94895 4.43620 1 ft 6 kts 237°
2026-05-07 13:55 51.94887 4.43577 1 ft 3 kts 289°
2026-05-07 13:55 51.94900 4.43550 1 ft 4 kts 315°
2026-05-07 13:55 51.94918 4.43529 1 ft 0 kts 324°